West Columbia, WV

2:39 PM EST on February 06, 2016 (GMT -0500)
Point Pleasant

Weather History for K3I2 - January, 2014

Change the Weather History Date:

Sunday, January 19, 2014

  Actual Average (KHTS) Record (KHTS)
Temperature  
Mean Temperature 37 °F 34 °F  
Max Temperature 44 °F 42 °F 74 °F (1929)
Min Temperature 30 °F 25 °F -21 °F (1994)
Degree Days  
Heating Degree Days 28 31  
Month to date heating degree days 595  
Since 1 July heating degree days 2350  
Cooling Degree Days 0 0  
Month to date cooling degree days 0  
Year to date cooling degree days 0  
Moisture  
Dew Point 27 °F    
Average Humidity 69    
Maximum Humidity 93    
Minimum Humidity 43    
Precipitation  
Precipitation 0.00 in 0.09 in 1.30 in (1936)
Month to date precipitation 1.81  
Year to date precipitation 1.81  
Snow  
Snow 0.00 in - - ()
Month to date snowfall  
Since 1 September snowfall  
Snow Depth -    
Sea Level Pressure  
Sea Level Pressure 29.86 in    
Wind  
Wind Speed 5 mph (WSW)    
Max Wind Speed 16 mph    
Max Gust Speed 23 mph    
Visibility 10 miles    
Events Snow    
T = Trace of Precipitation, MM = Missing Value Source: NWS Daily Summary

Daily Weather History Graph

Daily Weather History Graph

Search for Another Location

Airport or City:

Trip Planner

Search our weather history database for the weather conditions in past years. The results will help you decide how hot, cold, wet, or windy it might be!

Date:

Astronomy

Jan. 19, 2014 Rise Set
Actual Time 7:43 AM EST 5:34 PM EST
Civil Twilight 7:14 AM EST 6:03 PM EST
Nautical Twilight 6:42 AM EST 6:36 PM EST
Astronomical Twilight 6:10 AM EST 7:08 PM EST
Moon 9:09 PM EST (1/19) 9:15 AM EST (1/19)
Length of Visible Light 10h 49m
Length of Day
9h 51m
Waning Gibbous, 89% of the Moon is Illuminated
Jan 19
Waning Gibbous
Jan 24
Last Quarter
Jan 30
New
Feb 6
First Quarter
Feb 14
Full

Hourly Weather History & Observations

Time (EST) Temp. Windchill Dew Point Humidity Pressure Visibility Wind Dir Wind Speed Gust Speed Precip Events Conditions
12:15 AM 30.2 °F 26.7 °F 26.6 °F 86% 29.82 in 10.0 mi SE 3.5 mph - N/A   Overcast
12:35 AM 32.0 °F - 26.6 °F 80% 29.82 in 10.0 mi Calm Calm - N/A   Overcast
12:55 AM 32.0 °F - 26.6 °F 80% 29.81 in 10.0 mi Calm Calm - N/A   Overcast
1:15 AM 32.0 °F - 26.6 °F 80% 29.80 in 10.0 mi Calm Calm - N/A   Overcast
1:35 AM 32.0 °F - 26.6 °F 80% 29.80 in 10.0 mi Calm Calm - N/A   Overcast
1:55 AM 32.0 °F - 26.6 °F 80% 29.80 in 10.0 mi Calm Calm - N/A   Overcast
2:15 AM 32.0 °F - 26.6 °F 80% 29.80 in 10.0 mi Calm Calm - N/A   Overcast
2:35 AM 32.0 °F - 28.4 °F 87% 29.80 in 10.0 mi Calm Calm - N/A   Overcast
2:55 AM 32.0 °F - 28.4 °F 87% 29.80 in 10.0 mi Calm Calm - N/A   Overcast
3:15 AM 32.0 °F - 28.4 °F 87% 29.81 in 10.0 mi Calm Calm - N/A   Overcast
3:35 AM 32.0 °F - 28.4 °F 87% 29.80 in 10.0 mi Calm Calm - N/A   Overcast
3:55 AM 32.0 °F 28.7 °F 28.4 °F 87% 29.80 in 10.0 mi SW 3.5 mph - N/A   Overcast
4:15 AM 32.0 °F 28.7 °F 28.4 °F 87% 29.80 in 10.0 mi SW 3.5 mph - N/A   Overcast
4:35 AM 32.0 °F - 28.4 °F 87% 29.80 in 10.0 mi Calm Calm - N/A   Overcast
4:55 AM 32.0 °F - 28.4 °F 87% 29.80 in 10.0 mi Calm Calm - N/A   Overcast
5:15 AM 32.0 °F - 28.4 °F 87% 29.81 in 10.0 mi Calm Calm - N/A   Overcast
5:35 AM 32.0 °F - 28.4 °F 87% 29.81 in 7.0 mi Calm Calm - N/A   Overcast
5:55 AM 32.0 °F - 30.2 °F 93% 29.82 in 5.0 mi Calm Calm - N/A Snow Light Snow
6:15 AM 32.0 °F - 30.2 °F 93% 29.82 in 7.0 mi Calm Calm - N/A   Overcast
6:35 AM 33.8 °F - 30.2 °F 87% 29.83 in 5.0 mi Calm Calm - N/A   Overcast
6:55 AM 33.8 °F 29.6 °F 32.0 °F 93% 29.83 in 10.0 mi WSW 4.6 mph - N/A   Overcast
7:15 AM 33.8 °F 30.8 °F 32.0 °F 93% 29.85 in 10.0 mi WSW 3.5 mph - N/A   Overcast
7:35 AM 33.8 °F 30.8 °F 32.0 °F 93% 29.86 in 7.0 mi West 3.5 mph - N/A   Overcast
7:55 AM 33.8 °F 29.6 °F 32.0 °F 93% 29.87 in 10.0 mi WSW 4.6 mph - N/A   Overcast
8:15 AM 35.6 °F 32.8 °F 32.0 °F 87% 29.89 in 7.0 mi West 3.5 mph - N/A   Overcast
8:35 AM 35.6 °F 30.7 °F 32.0 °F 87% 29.90 in 7.0 mi West 5.8 mph - N/A   Overcast
8:55 AM 35.6 °F 32.8 °F 32.0 °F 87% 29.91 in 10.0 mi West 3.5 mph - N/A   Overcast
9:15 AM 35.6 °F 32.8 °F 32.0 °F 87% 29.91 in 7.0 mi West 3.5 mph - N/A   Overcast
9:35 AM 35.6 °F 29.2 °F 32.0 °F 87% 29.93 in 10.0 mi West 8.1 mph - N/A   Overcast
9:55 AM 35.6 °F 29.2 °F 30.2 °F 81% 29.94 in 10.0 mi West 8.1 mph 19.6 mph N/A   Overcast
10:15 AM 35.6 °F 30.7 °F 28.4 °F 75% 29.94 in 10.0 mi West 5.8 mph - N/A   Overcast
10:35 AM 35.6 °F 30.7 °F 28.4 °F 75% 29.95 in 10.0 mi West 5.8 mph - N/A   Overcast
10:55 AM 35.6 °F 28.0 °F 28.4 °F 75% 29.95 in 10.0 mi WSW 10.4 mph 16.1 mph N/A   Overcast
11:15 AM 35.6 °F 28.6 °F 28.4 °F 75% 29.96 in 10.0 mi West 9.2 mph 18.4 mph N/A   Overcast
11:35 AM 35.6 °F 29.9 °F 28.4 °F 75% 29.96 in 10.0 mi West 6.9 mph - N/A   Overcast
11:55 AM 37.4 °F 34.9 °F 28.4 °F 70% 29.95 in 10.0 mi West 3.5 mph - N/A   Overcast
12:15 PM 39.2 °F 34.2 °F 28.4 °F 65% 29.95 in 10.0 mi West 6.9 mph - N/A   Mostly Cloudy
12:35 PM 41.0 °F 36.4 °F 28.4 °F 61% 29.93 in 10.0 mi West 6.9 mph - N/A   Scattered Clouds
12:55 PM 42.8 °F 35.4 °F 28.4 °F 57% 29.91 in 10.0 mi WSW 15.0 mph 19.6 mph N/A   Clear
1:15 PM 42.8 °F 36.6 °F 28.4 °F 57% 29.91 in 10.0 mi WSW 11.5 mph 16.1 mph N/A   Clear
1:35 PM 42.8 °F 36.6 °F 28.4 °F 57% 29.90 in 10.0 mi WSW 11.5 mph 17.3 mph N/A   Clear
1:55 PM 42.8 °F 37.0 °F 28.4 °F 57% 29.90 in 10.0 mi WSW 10.4 mph 16.1 mph N/A   Clear
2:15 PM 44.6 °F 37.8 °F 28.4 °F 53% 29.89 in 10.0 mi WSW 15.0 mph 19.6 mph N/A   Clear
2:35 PM 44.6 °F 38.8 °F 26.6 °F 49% 29.90 in 10.0 mi WSW 11.5 mph 17.3 mph N/A   Clear
2:55 PM 44.6 °F 38.4 °F 24.8 °F 46% 29.90 in 10.0 mi WSW 12.7 mph 20.7 mph N/A   Clear
3:15 PM 44.6 °F 38.1 °F 24.8 °F 46% 29.90 in 10.0 mi WSW 13.8 mph - N/A   Clear
3:35 PM 44.6 °F 37.8 °F 23.0 °F 43% 29.89 in 10.0 mi WSW 15.0 mph 21.9 mph N/A   Clear
3:55 PM 44.6 °F 38.1 °F 24.8 °F 46% 29.89 in 10.0 mi WSW 13.8 mph 18.4 mph N/A   Clear
4:15 PM 44.6 °F 38.4 °F 24.8 °F 46% 29.89 in 10.0 mi WSW 12.7 mph 19.6 mph N/A   Clear
4:35 PM 42.8 °F 36.6 °F 24.8 °F 49% 29.89 in 10.0 mi SW 11.5 mph 19.6 mph N/A   Clear
4:55 PM 42.8 °F 35.4 °F 24.8 °F 49% 29.89 in 10.0 mi WSW 15.0 mph - N/A   Clear
5:15 PM 41.0 °F 34.3 °F 24.8 °F 53% 29.89 in 10.0 mi SW 11.5 mph 18.4 mph N/A   Clear
5:35 PM 41.0 °F 32.8 °F 23.0 °F 49% 29.88 in 10.0 mi SW 16.1 mph 23.0 mph N/A   Clear
5:55 PM 41.0 °F 35.2 °F 23.0 °F 49% 29.89 in 10.0 mi SW 9.2 mph 18.4 mph N/A   Clear
6:15 PM 41.0 °F 35.2 °F 23.0 °F 49% 29.88 in 10.0 mi SW 9.2 mph - N/A   Clear
6:35 PM 39.2 °F 32.5 °F 23.0 °F 52% 29.88 in 10.0 mi SW 10.4 mph 20.7 mph N/A   Clear
6:55 PM 39.2 °F 32.5 °F 23.0 °F 52% 29.87 in 10.0 mi SW 10.4 mph - N/A   Clear
7:15 PM 39.2 °F 31.6 °F 24.8 °F 56% 29.87 in 10.0 mi SW 12.7 mph 18.4 mph N/A   Clear
7:55 PM 39.2 °F 32.0 °F 24.8 °F 56% 29.87 in 10.0 mi SW 11.5 mph 16.1 mph N/A   Clear
8:15 PM 39.2 °F 32.0 °F 24.8 °F 56% 29.87 in 10.0 mi SW 11.5 mph 18.4 mph N/A   Clear
8:35 PM 39.2 °F 32.5 °F 26.6 °F 61% 29.86 in 10.0 mi SW 10.4 mph - N/A   Clear
8:55 PM 39.2 °F 32.0 °F 26.6 °F 61% 29.86 in 10.0 mi SW 11.5 mph - N/A   Clear
9:15 PM 39.2 °F 32.0 °F 26.6 °F 61% 29.84 in 10.0 mi SW 11.5 mph - N/A   Clear
9:35 PM 41.0 °F 33.9 °F 26.6 °F 57% 29.83 in 10.0 mi SW 12.7 mph 19.6 mph N/A   Clear
9:55 PM 41.0 °F 33.5 °F 24.8 °F 53% 29.82 in 10.0 mi SW 13.8 mph 21.9 mph N/A   Clear
10:15 PM 41.0 °F 33.1 °F 24.8 °F 53% 29.81 in 10.0 mi SW 15.0 mph 20.7 mph N/A   Clear
10:35 PM 41.0 °F 33.9 °F 26.6 °F 57% 29.82 in 10.0 mi SW 12.7 mph 20.7 mph N/A   Clear
10:55 PM 41.0 °F 34.3 °F 26.6 °F 57% 29.82 in 10.0 mi SW 11.5 mph - N/A   Clear
11:15 PM 41.0 °F 34.3 °F 26.6 °F 57% 29.83 in 10.0 mi SW 11.5 mph 20.7 mph N/A   Clear
11:35 PM 41.0 °F 33.5 °F 26.6 °F 57% 29.83 in 10.0 mi SW 13.8 mph 19.6 mph N/A   Clear
11:55 PM 39.2 °F 32.5 °F 26.6 °F 61% 29.83 in 10.0 mi SW 10.4 mph - N/A   Clear